Terminal Aerodrome Forecast
Issued by NWS Omaha/Valley, NE

Home | Current Version | Previous Version | Text Only | Print | Product List | Glossary On
Versions: 1 2 3 4 5 6 7 8 9 10 11 12 13 14 15 16 17 18 19 20 21 22 23 24 25 26 27 28 29 30 31 32 33 34 35 36 37
000
FTUS43 KOAX 051124
TAFOMA
TAF
KOMA 051124Z 0512/0612 10006KT P6SM SCT025 BKN150
      TEMPO 0512/0514 5SM BR BKN015
     FM051500 14007KT P6SM BKN150=

USA.gov is the U.S. government's official web portal to all federal, state and local government web resources and services.